Dauntless Aviation
Greetings, Guest! To participate, [sign up for a free account] or [log in]
Airports Europe France
LFIY

Saint Jean d'Angely

FRANCE

Airport Info
Edit

Location

Latitude / Longitude: 45°57'59"N / 0°31'31"W
  45°57.984'N / 0°31.518'W
  45.9664 / -0.5253

Runway Information

Runway 10 /28

Dimensions: 2789 x 164 ft.
Surface: U
 
Runway 10
Runway 28
Latitude: 45.966636 45.965728
Longitude: -0.528086 -0.518369
Elevation: 243 ft. 243 ft.
Runway true heading: 95.7 275.7
 

Instrument Procedures

IAPs (Instrument Approach Procedures)

  Visual Approch Chart
Satellite photo at:
Airport distance calculator
From:
Weather Reports

METAR

LFBG
20.0nm SE
LFBG 010730Z AUTO 27007KT 9999 OVC010 16/15 Q1018
LFBH
27.2nm W
LFBH 010730Z AUTO 34011KT 9999 FEW012 16/13 Q1019
LFBU
34.5nm E
LFBU 010730Z AUTO 30008KT 9999 OVC006 16/15 Q1018

TAF

LFBG
20.0nm SE
TAF AMD LFBG 010630Z 0106/0206 32008KT 9999 SCT012 SCT030 TEMPO 0106/0109 BKN010 BECMG 0109/0111 BKN025
LFBH
27.2nm W
TAF LFBH 010500Z 0106/0206 35015KT 9999 BKN010 BKN030 BECMG 0110/0112 SCT030 BECMG 0112/0114 29015KT BECMG 0122/0124 36010KT CAVOK
LFBU
34.5nm E
TAF LFBU 010500Z 0106/0206 35006KT 9999 BKN006 BKN040 BECMG 0106/0108 BKN015 BECMG 0108/0110 SCT030 BECMG 0112/0114 CAVOK
Safelog

 

Dauntless Aviation

© 2007-2015 Dauntless Aviation, all rights reserved
Information provided via PilotNav comes from a variety of official and unofficial data sources. As errors are possible, do not use PilotNav for primary flight planning purposes. Verify any information that you receive via PilotNav with current and canonical charts and other official documents. The material in this database is subject to database copyrights held by Dauntless Aviation and may not be copied without the express permission of Dauntless Aviation - licenses for use of part of all of this data are available for purchase; enquire via the Dauntless Aviation helpdesk. A number of mechanisms and markers exist in the database to protect against and identify infringement / copyright. Automated queries against this website are stictly prohibited, and all activity is logged and analyzed.